Weather History for Needles, CA

Change the Weather History Date:

Sunday, September 15, 2013

  Actual Average Record
Temperature  
Mean Temperature 93 °F -  
Max Temperature 106 °F 100 °F 113 °F (2000)
Min Temperature 80 °F 73 °F 60 °F (1988)
Cooling Degree Days 28    
Growing Degree Days 43 (Base 50)    
Moisture  
Dew Point 54 °F    
Average Humidity 29    
Maximum Humidity 49    
Minimum Humidity 14    
Precipitation  
Precipitation 0.00 in - - ()
Sea Level Pressure  
Sea Level Pressure 29.62 in    
Wind  
Wind Speed 3 mph (North)    
Max Wind Speed 7 mph    
Max Gust Speed -    
Visibility 10 miles    
Events      
Averages and records for this station are not official NWS values.
T = Trace of Precipitation, MM = Missing Value Source: NWS Daily Summary

Daily Weather History Graph

Daily Weather History Graph

Search for Another Location

Airport:

Trip Planner

Search our weather history database for the weather conditions in past years. The results will help you decide how hot, cold, wet, or windy it might be!

Date:

Astronomy

Sep. 15, 2013 Rise Set
Actual Time 6:21 AM PDT 6:44 PM PDT
Civil Twilight 5:56 AM PDT 7:10 PM PDT
Nautical Twilight 5:26 AM PDT 7:39 PM PDT
Astronomical Twilight 4:56 AM PDT 8:09 PM PDT
Moon 4:08 PM PDT (9/15) 2:12 AM PDT (9/15)
Length of Visible Light 13h 13m
Length of Day
12h 23m
Waxing Gibbous, 83% of the Moon is Illuminated
Sep 15
Waxing Gibbous
Sep 19
Full
Sep 26
Last Quarter
Oct 4
New
Oct 11
First Quarter

Hourly Weather History & Observations

Time (PDT) Temp. Heat Index Dew Point Humidity Pressure Visibility Wind Dir Wind Speed Gust Speed Precip Events Conditions
12:56 AM 86.0 °F 84.5 °F 55.0 °F 35% 29.56 in 10.0 mi NW 5.8 mph - N/A   Clear
1:56 AM 84.9 °F 83.7 °F 55.9 °F 37% 29.57 in 10.0 mi Calm Calm - N/A   Clear
2:56 AM 82.9 °F 82.4 °F 57.0 °F 41% 29.58 in 10.0 mi Calm Calm - N/A   Clear
3:56 AM 82.9 °F 82.4 °F 57.0 °F 41% 29.59 in 10.0 mi Calm Calm - N/A   Clear
4:56 AM 82.9 °F 82.6 °F 57.9 °F 42% 29.60 in 10.0 mi Calm Calm - N/A   Clear
5:56 AM 80.1 °F 80.7 °F 59.0 °F 48% 29.62 in 10.0 mi NNW 4.6 mph - N/A   Clear
6:56 AM 81.0 °F 81.6 °F 60.1 °F 49% 29.65 in 10.0 mi Calm Calm - N/A   Clear
7:56 AM 84.9 °F 84.4 °F 59.0 °F 41% 29.65 in 10.0 mi Calm Calm - N/A   Clear
8:56 AM 88.0 °F 87.1 °F 59.0 °F 37% 29.67 in 10.0 mi Calm Calm - N/A   Clear
9:56 AM 91.9 °F 90.3 °F 55.9 °F 30% 29.68 in 10.0 mi NE 3.5 mph - N/A   Clear
10:56 AM 95.0 °F 93.7 °F 57.0 °F 28% 29.68 in 10.0 mi NE 5.8 mph - N/A   Clear
11:56 AM 98.1 °F 97.2 °F 57.9 °F 26% 29.67 in 10.0 mi NE 5.8 mph - N/A   Clear
12:56 PM 99.0 °F 97.7 °F 55.9 °F 24% 29.65 in 10.0 mi ESE 4.6 mph - N/A   Clear
1:56 PM 102.9 °F 100.9 °F 53.1 °F 19% 29.62 in 10.0 mi Calm Calm - N/A   Clear
2:56 PM 106.0 °F - 50.0 °F 15% 29.60 in 10.0 mi ENE 6.9 mph - N/A   Clear
3:56 PM 106.0 °F - 50.0 °F 15% 29.58 in 10.0 mi Variable 3.5 mph - N/A   Clear
4:56 PM 105.1 °F - 48.0 °F 15% 29.57 in 10.0 mi East 5.8 mph - N/A   Clear
5:56 PM 104.0 °F - 46.0 °F 14% 29.57 in 10.0 mi East 5.8 mph - N/A   Clear
6:56 PM 99.0 °F - 50.0 °F 19% 29.58 in 10.0 mi Calm Calm - N/A   Clear
7:56 PM 95.0 °F - 51.1 °F 22% 29.59 in 10.0 mi WNW 4.6 mph - N/A   Clear
8:56 PM 93.0 °F - 48.9 °F 22% 29.61 in 10.0 mi West 6.9 mph - N/A   Clear
9:56 PM 91.0 °F - 48.9 °F 23% 29.62 in 10.0 mi West 5.8 mph - N/A   Clear
10:56 PM 89.1 °F - 51.1 °F 27% 29.62 in 10.0 mi Calm Calm - N/A   Clear
11:56 PM 87.1 °F - 51.1 °F 29% 29.63 in 10.0 mi WNW 3.5 mph - N/A   Clear